Terminal Aerodrome Forecast
Issued by NWS

Home | Current Version | Previous Version | Text Only | Print | Product List | Glossary On
Versions: 1 2 3 4 5 6 7 8 9 10 11 12 13 14 15
000
FTAK31 PAFA 232343
TAFAOM
TAF
PAOM 232343Z 2400/2424 33007KT P6SM SCT050 BKN150
     FM240600 01010KT P6SM SCT050 BKN150
     FM241600 01010KT P6SM SCT040 BKN080 BKN150 PROB30 2416/2422 2SM
      -SHSN BKN030=

USA.gov is the U.S. government's official web portal to all federal, state and local government web resources and services.